Location: Newark
(40.9833°N, 0.0333°W)
Time: 07:38:01
(UTC+00:00)

OTV 5 (USA 277) - Visible Passes

Search period start: 21 October 2019 00:00
Search period end: 31 October 2019 00:00
Orbit: 310 x 324 km, 54.5° (Epoch: 17 October)

Date Brightness Start Highest point End Pass type
(mag) Time Alt. Az. Time Alt. Az. Time Alt. Az.
21 Oct ? 05:19:47 20° WSW 05:20:26 22° SW 05:22:38 10° S visible
27 Oct ? 18:22:18 10° SSW 18:24:02 24° SSE 18:24:02 24° SSE visible
28 Oct ? 18:36:24 10° SW 18:38:40 58° SW 18:38:40 58° SW visible
29 Oct ? 18:51:13 10° WSW 18:53:10 29° WNW 18:53:10 29° WNW visible
30 Oct ? 17:31:20 10° SSW 17:33:58 47° SE 17:36:38 10° ENE visible
30 Oct ? 19:06:39 10° WNW 19:07:33 14° NW 19:07:33 14° NW visible
